Temp
15 12 13 14 14 14 14 13 12 12 14 14 13 12 14 15 13 14 15 13 12 11 14 16 16 17 17 17 16 17 16 16 16 16 16 16 16 16 15 15 14 14 14 14
13 13 14 15 15 14 14 13 12 13 15 14 13 13 14 14 16 16 16 13 12 11 12 14 15 16 16 16 15 15 15 16 16 16 15 15 14 14 14 14 14 14 13 13
13 15 15 15 14 14 14 14 13 13 12 13 12 13 13 16 15 15 14 13 12 12 11 12 14 15 15 15 15 15 15 16 15 15 15 14 13 13 13 14 14 13 13 13
14 15 15 14 14 14 13 15 14 13 11 12 13 13 14 16 16 15 13 12 12 12 11 12 12 14 15 15 15 15 15 15 15 14 14 13 13 12 13 13 13 13 13 12
15 14 13 15 15 14 14 14 12 12 12 11 13 10 13 15 16 16 14 13 13 12 12 12 12 14 15 15 15 15 15 15 14 14 14 13 13 13 13 13 13 13 12 12
14 13 13 14 13 13 13 13 12 10 10 10 13 12 13 14 17 16 15 13 13 12 12 12 14 14 15 15 15 15 15 15 14 14 14 13 13 13 13 13 12 13 12 12
12 14 14 13 13 13 12 11 11 12 9 12 13 13 13 16 16 16 15 13 12 11 11 11 10 12 13 14 15 15 15 14 14 14 13 13 13 13 13 13 13 13 12 12
9 13 14 14 14 13 12 12 9 12 10 10 11 12 13 14 15 14 14 13 12 11 10 10 10 12 13 14 14 14 14 14 14 14 14 14 13 13 13 13 13 12 12 12
12 13 13 13 13 13 13 10 11 10 9 8 10 12 15 14 14 13 12 12 11 11 10 10 10 12 13 14 14 14 14 14 14 14 14 14 14 13 13 13 13 13 12 12
12 11 13 13 13 12 13 12 10 7 9 12 11 11 12 13 15 14 13 12 12 12 11 10 10 12 13 14 14 14 14 14 14 14 14 14 13 13 13 13 13 13 12 12
13 10 12 12 11 12 10 10 10 8 9 9 7 10 11 14 14 13 13 13 12 12 12 10 11 12 13 13 13 13 13 14 14 14 14 14 14 14 13 13 13 12 12 12
12 9 7 11 12 12 12 12 10 8 9 8 8 10 14 12 13 11 13 12 11 11 11 10 10 11 12 12 12 12 13 13 13 13 13 13 13 13 13 13 13 13 12 12
10 7 6 10 10 11 11 12 12 9 8 8 9 9 11 10 12 12 12 10 9 11 11 8 9 9 10 12 12 12 12 12 12 12 12 12 12 12 12 12 12 12 12 12
12 8 9 9 11 9 10 10 10 9 8 9 11 11 13 13 13 12 10 10 9 9 9 8 8 8 10 11 11 11 11 11 11 11 11 11 11 11 12 12 12 12 11 11
9 6 7 8 9 9 9 9 9 8 9 8 10 9 11 12 11 9 10 9 9 9 8 8 7 7 9 9 10 10 10 10 10 10 10 10 10 11 11 11 11 11 11 11
7 6 2 3 8 8 8 9 9 9 9 9 9 9 11 10 9 8 8 9 9 8 8 7 7 8 8 9 9 9 9 9 9 8 8 8 9 10 10 10 10 10 10 11
7 6 6 9 8 7 6 8 10 9 8 9 8 8 8 8 8 8 8 8 8 7 7 7 7 8 8 8 9 8 8 8 7 7 7 7 7 8 8 8 9 9 10 10
6 5 8 8 8 6 10 10 10 10 9 8 8 8 9 8 8 7 8 8 6 7 7 7 8 8 8 8 8 8 7 7 7 6 6 6 6 6 7 7 7 8 8 9
8 7 8 8 6 8 11 11 10 9 8 9 9 8 8 8 7 8 8 8 7 7 7 7 8 8 7 7 7 7 6 7 6 6 5 5 5 5 5 6 6 6 7 8
6 7 8 7 8 8 10 10 11 11 8 9 9 8 8 7 6 7 8 7 7 8 7 7 7 7 7 7 7 6 6 5 5 5 5 4 4 4 4 4 5 5 6 6
2 3 7 8 9 9 9 9 10 8 7 7 8 8 7 6 6 7 6 6 7 7 7 7 7 7 7 6 6 5 5 4 5 5 4 4 4 3 4 4 4 5 5 5
5 4 3 6 8 8 9 9 8 8 7 8 7 7 7 6 6 6 6 5 5 5 6 7 6 6 6 6 5 4 4 4 4 4 4 3 4 3 3 3 4 4 4 4
5 6 6 5 6 8 9 8 9 9 8 7 7 6 5 4 5 5 5 4 4 5 5 6 5 5 5 5 5 4 4 4 4 3 3 3 4 4 3 3 3 3 4 4
5 6 5 6 8 6 7 8 8 7 6 6 5 5 5 4 4 3 3 3 3 4 4 5 5 4 4 5 4 4 4 4 4 3 3 3 3 3 3 3 2 2 3 3
4 5 4 5 6 6 7 6 6 6 5 5 4 4 4 3 3 3 3 2 3 4 4 4 4 3 3 4 4 3 3 3 3 3 3 2 3 3 3 2 2 2 2 3
4 4 4 4 6 5 6 6 5 5 6 5 3 3 3 3 2 2 2 3 3 3 4 3 3 3 3 3 3 3 3 3 3 2 2 2 2 3 2 2 1 2 2 2
Height
828 840 845 840 838 837 839 843 846 839 825 827 822 819 804 796 799 798 795 796 795 792 786 784 783 782 781 779 778 775 776 778 780 780 781 782 782 783 784 784 784 785 784 783
837 841 837 835 835 836 836 840 844 833 824 828 820 811 800 795 792 792 793 795 795 792 788 785 784 783 782 781 780 779 779 780 781 781 781 782 782 782 782 782 782 782 782 781
840 836 832 834 835 836 837 838 839 841 834 825 825 812 806 793 793 793 794 796 794 792 790 786 783 782 781 782 781 780 780 779 780 781 781 782 782 781 780 780 780 780 779 778
836 833 835 835 835 837 842 831 833 838 842 839 827 833 808 796 796 796 798 798 794 791 788 786 784 782 781 781 781 781 781 781 780 780 780 781 781 779 778 778 778 778 777 776
837 835 838 836 835 835 837 832 838 835 840 842 831 848 811 801 799 798 798 796 792 789 787 785 783 782 780 780 780 780 780 780 780 779 779 778 777 777 776 775 775 774 773 772
836 837 837 836 836 836 834 834 835 843 848 854 825 833 814 807 796 796 795 795 792 790 787 785 784 782 780 779 779 779 779 778 778 778 777 776 775 774 773 772 772 771 770 769
844 836 836 836 837 835 841 847 856 848 862 841 827 828 812 796 794 794 794 795 794 792 789 786 783 781 779 778 777 776 776 775 775 775 774 774 773 772 771 769 768 767 766 765
872 851 838 837 838 842 844 847 871 861 870 858 835 828 809 798 796 796 796 796 795 794 791 788 785 782 779 777 775 774 774 773 772 772 770 770 769 768 767 766 765 764 762 761
857 847 838 839 840 843 844 859 849 859 866 877 840 818 800 799 799 800 801 800 799 795 791 788 786 783 780 777 775 773 772 770 769 768 767 766 765 764 763 762 761 759 758 757
853 861 841 842 841 843 842 847 863 877 869 846 835 832 815 804 797 799 799 800 798 796 793 789 787 784 781 780 778 775 773 770 768 765 764 762 761 759 758 757 755 754 753 752
849 863 850 843 846 843 852 852 852 866 864 864 878 832 806 795 797 800 798 797 797 794 791 791 789 785 783 781 779 777 774 771 768 764 761 758 755 753 752 750 748 747 746 745
850 866 877 848 839 840 840 842 850 871 860 864 862 826 792 797 796 799 796 796 793 791 792 791 789 786 782 780 778 777 774 771 769 765 761 757 753 750 746 744 742 740 738 737
852 872 889 848 850 840 839 838 839 852 856 856 853 832 800 800 796 795 796 797 792 790 793 793 789 786 783 780 777 774 772 769 766 763 759 755 751 747 743 740 737 734 732 730
843 862 858 857 842 848 846 841 841 850 853 835 823 804 797 792 795 795 798 798 797 794 794 791 788 786 784 781 778 774 770 766 762 758 755 752 748 744 739 735 732 729 727 725
850 869 859 847 843 845 840 841 834 841 829 838 804 816 798 795 799 800 795 795 797 795 793 791 788 784 781 778 775 772 769 764 760 755 751 748 744 739 735 730 726 723 719 718
854 864 875 875 846 842 833 829 823 821 820 818 813 810 798 800 802 801 799 798 798 795 792 789 785 782 779 775 772 768 765 761 758 753 749 744 739 735 730 726 722 718 714 711
852 856 857 830 838 843 844 813 804 810 812 809 816 808 806 804 801 800 799 798 797 794 791 787 783 780 776 773 769 765 761 758 754 750 744 740 736 731 726 722 717 713 709 706
846 856 848 839 839 852 798 795 793 797 800 804 804 803 801 800 798 798 796 795 795 791 787 783 780 777 774 771 767 762 758 753 749 745 740 736 732 728 722 717 713 709 705 701
827 842 841 835 844 817 794 787 791 795 804 801 801 802 800 798 798 794 791 791 791 788 784 780 777 774 770 767 762 758 755 751 747 742 737 732 728 723 718 713 707 703 700 695
832 831 830 834 823 821 793 790 787 787 803 801 799 798 798 797 801 793 787 787 785 782 779 776 773 770 766 762 758 754 751 747 743 738 733 729 724 719 713 707 702 697 693 689
854 851 827 819 813 802 794 793 789 805 807 799 796 795 796 798 795 787 784 781 779 776 773 771 767 764 761 757 754 750 747 742 738 734 729 723 718 713 708 702 696 691 686 681
833 846 847 830 814 809 797 796 804 802 797 794 792 791 792 791 788 785 781 777 775 772 770 767 764 760 756 753 750 746 742 736 732 728 723 717 712 707 702 697 690 685 681 675
834 826 826 824 811 798 796 799 799 797 795 792 791 790 789 788 784 781 778 774 771 769 766 762 759 755 752 747 744 741 735 731 727 722 717 713 707 701 697 691 685 679 674 670
827 820 822 818 798 802 797 794 793 794 792 790 788 786 783 782 781 778 774 770 768 764 761 757 755 751 747 743 739 736 731 727 721 716 711 707 703 696 691 687 682 677 670 664
829 823 820 811 805 804 796 796 793 789 788 786 782 781 780 778 776 773 769 766 762 759 755 753 751 747 743 738 733 729 725 722 716 711 705 700 696 691 685 681 676 671 665 662
824 820 820 807 801 802 789 790 788 785 781 777 777 776 774 773 771 768 764 760 757 754 750 747 744 741 736 732 727 723 719 716 711 705 700 695 690 684 680 674 665 663 658 652
Wind_Speed
2 6 3 1 1 2 2 2 5 5 7 6 6 12 18 13 5 5 4 6 8 7 8 10 5 4 4 4 2 1 7 11 12 10 9 11 14 14 12 9 7 10 12 13
5 3 3 3 2 2 1 3 6 7 2 6 7 16 12 5 1 3 2 6 7 7 8 10 11 7 5 5 2 3 5 6 9 10 11 10 8 9 10 11 12 11 9 8
4 2 1 1 2 5 3 3 2 5 8 3 7 6 6 4 4 3 4 4 5 6 7 7 10 9 11 8 8 8 9 9 10 9 9 11 12 12 13 12 11 8 10 13
3 1 1 3 4 3 5 3 2 6 6 3 5 5 4 1 2 3 6 6 6 6 5 4 8 10 11 10 10 10 10 10 9 10 11 12 14 14 16 14 14 12 11 12
2 3 6 3 0 1 7 2 6 2 3 4 1 2 6 1 2 3 6 6 6 6 6 7 8 9 8 7 9 10 9 10 11 12 14 15 17 18 17 17 16 15 13 15
1 1 1 2 3 3 7 4 3 3 3 2 3 4 5 3 3 1 3 6 7 8 7 7 10 8 8 7 7 9 11 14 13 14 15 18 18 19 19 20 19 18 16 17
6 2 1 0 4 2 7 5 4 5 4 4 4 1 8 2 2 1 3 6 7 7 7 7 7 11 13 12 11 11 13 15 15 14 17 18 20 21 22 22 22 21 20 19
3 6 1 1 2 1 2 2 4 4 2 5 5 5 5 0 2 4 4 3 5 7 7 7 8 11 11 13 13 12 12 15 16 16 17 19 21 22 22 23 23 23 22 21
1 5 1 0 1 2 1 2 2 1 2 2 4 7 2 2 4 4 6 6 6 7 6 7 10 14 16 17 16 13 13 15 16 17 17 18 19 21 23 24 23 24 23 23
3 4 2 1 1 1 1 2 2 2 1 4 5 6 5 6 3 2 3 5 6 4 6 6 8 15 19 20 20 20 18 18 19 19 19 21 21 21 22 23 25 25 25 24
3 3 5 0 4 5 1 1 2 3 4 4 3 6 6 5 6 7 4 4 7 6 1 3 9 19 20 23 25 26 26 23 26 26 23 22 23 24 25 25 25 26 26 25
2 4 4 9 1 2 2 3 4 3 4 3 2 6 3 5 3 5 2 5 7 5 2 3 9 18 23 24 25 26 27 26 27 27 27 26 25 24 24 26 29 29 29 27
6 1 3 9 5 1 2 2 3 1 2 6 3 6 2 3 6 8 12 10 7 3 5 6 10 13 18 22 25 29 29 28 30 29 28 29 27 27 26 25 25 26 28 29
4 4 8 7 7 4 6 6 5 5 4 9 14 20 20 22 21 15 7 4 7 5 4 5 6 10 17 21 22 27 30 31 32 31 30 31 30 30 30 28 27 25 24 26
4 6 6 9 10 6 13 14 19 16 19 12 17 16 22 18 15 7 4 3 1 5 6 6 7 8 18 20 22 24 29 31 33 34 32 30 31 30 31 31 29 28 25 24
2 4 3 3 10 15 19 18 21 21 19 20 22 23 19 9 4 5 5 3 4 5 6 7 6 10 14 19 24 25 27 29 32 32 28 32 32 31 32 31 31 30 29 26
6 4 1 8 2 7 8 13 16 4 6 7 8 5 2 4 5 5 3 4 5 7 7 8 8 13 19 22 24 25 25 27 27 27 28 28 30 31 32 32 32 32 31 29
6 5 3 6 3 5 6 4 6 8 3 3 3 2 2 4 5 7 3 2 7 8 9 9 12 18 23 23 25 28 31 30 28 28 27 27 28 28 30 30 30 31 33 32
15 6 4 4 5 8 11 6 3 5 3 2 3 3 5 5 4 4 4 2 6 8 12 16 18 21 18 24 27 26 24 28 27 25 26 29 30 30 29 28 28 29 31 32
4 9 8 3 5 5 2 5 3 2 4 4 3 4 4 3 5 5 6 5 8 15 16 16 23 18 24 26 29 28 20 24 22 25 27 30 31 30 29 30 30 31 29 30
2 1 14 14 9 7 2 3 1 3 2 4 5 5 5 4 5 8 6 8 14 16 17 23 24 23 25 26 26 20 22 22 26 30 30 30 29 29 30 31 30 30 31 28
6 5 4 4 7 10 3 3 3 4 6 6 5 4 7 8 8 9 11 8 9 12 18 22 20 22 25 27 23 23 22 28 28 29 29 29 30 29 30 30 30 30 28 27
4 5 4 7 5 2 3 2 4 10 13 5 3 7 8 9 8 9 9 9 9 15 18 20 20 21 26 28 25 22 27 29 29 28 27 27 30 27 28 27 28 27 25 22
5 4 5 7 6 9 17 20 16 4 6 7 8 12 8 9 8 7 7 7 8 14 15 19 21 19 23 28 28 26 28 29 29 27 27 25 26 28 25 26 24 24 24 22
5 5 7 15 18 17 20 12 11 14 7 10 9 7 7 6 8 7 6 7 12 16 20 21 19 20 23 28 31 30 29 27 27 27 28 25 24 24 26 25 25 25 26 25
5 14 11 17 21 17 22 15 9 12 19 12 7 5 7 7 8 7 7 14 15 17 21 21 22 21 25 25 29 30 29 27 24 25 24 24 26 25 24 25 29 25 29 30
Wind_Direction
357 65 69 250 281 158 172 216 263 243 276 313 261 284 284 291 283 277 286 338 326 319 306 353 356 323 308 310 309 122 163 176 191 192 219 247 260 268 269 263 266 280 284 283
27 84 216 237 202 196 182 323 297 297 300 328 306 289 287 272 233 155 6 342 328 330 328 331 335 320 278 281 264 206 200 219 237 248 254 259 268 271 270 276 280 285 287 294
127 191 273 310 351 22 318 218 286 265 320 278 310 305 347 20 84 42 5 316 324 321 314 322 336 346 336 278 276 270 259 247 259 270 267 270 274 276 283 289 290 292 290 300
85 282 6 17 42 58 323 193 284 291 12 297 57 280 308 21 67 346 319 311 317 325 330 315 328 329 336 310 285 284 277 277 272 267 269 269 273 281 287 292 297 292 297 297
290 21 15 21 284 103 244 331 288 246 195 7 281 64 265 310 252 289 299 318 316 315 312 317 316 329 334 332 286 283 281 278 273 270 268 269 272 278 283 282 284 283 283 290
327 2 169 258 289 211 300 321 32 53 83 10 253 133 278 201 203 276 311 324 327 323 319 316 316 316 321 311 296 284 279 287 286 278 272 268 271 278 279 280 281 284 278 286
339 302 259 16 341 39 19 25 337 349 3 228 317 326 247 233 180 140 337 345 348 345 351 336 330 321 318 309 295 289 284 286 292 290 284 275 273 277 277 280 281 281 279 278
55 330 180 117 86 289 335 121 145 257 280 285 308 238 267 188 50 28 26 355 2 353 350 349 343 350 345 335 319 300 290 285 289 288 286 284 281 278 277 278 281 279 277 277
40 279 335 1 105 106 20 52 165 100 280 19 266 285 1 64 47 16 18 12 349 350 356 9 358 13 11 5 358 348 320 305 299 294 289 285 281 277 277 282 280 278 278 275
184 310 237 104 45 38 159 162 43 8 318 268 284 283 243 224 188 99 45 10 333 331 359 18 16 21 22 18 10 7 360 345 334 321 307 298 294 287 281 278 276 276 277 273
125 123 289 348 202 189 105 201 137 142 172 206 272 267 217 214 194 148 93 360 307 302 224 34 27 24 21 16 12 8 4 0 357 352 340 331 322 307 297 291 286 280 279 273
168 150 261 235 268 308 246 234 159 134 259 243 205 268 305 226 115 117 24 306 282 270 260 46 25 13 13 10 8 2 358 354 352 346 344 337 330 328 316 304 296 292 287 280
179 233 344 331 7 35 209 213 189 140 334 212 207 262 200 275 311 298 333 331 310 9 29 7 2 357 0 358 356 355 351 347 343 341 340 338 331 332 322 317 310 300 287 281
145 185 186 219 226 179 260 263 254 179 223 258 232 264 285 289 301 303 308 325 345 63 45 354 345 334 340 342 347 348 344 341 340 338 335 335 334 331 329 322 318 311 296 279
154 210 225 249 269 264 263 257 259 237 241 239 262 254 266 281 302 286 288 343 48 15 358 333 319 317 326 334 342 341 339 337 337 332 330 331 331 328 326 326 322 319 310 291
191 260 119 268 253 254 264 259 254 251 256 256 260 264 278 295 336 10 349 28 354 339 322 313 308 312 320 331 333 333 338 336 335 330 322 323 326 324 322 322 323 320 314 306
182 189 341 280 235 304 289 249 238 200 217 221 230 218 304 334 340 316 337 4 333 318 310 320 316 319 323 328 329 333 334 331 329 324 323 321 318 318 316 317 319 319 315 309
204 158 194 282 347 256 241 276 214 205 155 156 128 193 267 264 269 285 213 342 330 322 315 312 310 319 328 329 331 328 328 330 327 323 321 321 320 316 314 311 309 312 314 308
214 192 241 240 211 298 299 300 124 157 196 238 222 252 267 266 289 264 188 334 291 288 290 295 310 319 322 321 322 321 320 322 318 316 318 317 316 313 312 309 308 304 304 305
88 205 204 178 239 252 207 318 357 42 231 359 236 283 295 336 311 275 243 267 274 291 292 301 315 312 316 321 326 315 312 313 309 313 313 314 311 310 309 308 305 303 297 294
95 158 226 239 252 273 272 341 45 209 299 294 249 255 266 253 232 275 283 281 288 297 308 316 308 308 319 320 319 304 309 301 309 311 308 312 311 308 307 306 305 303 298 292
185 180 205 228 250 271 9 13 15 294 298 282 266 258 269 263 276 274 281 287 287 291 298 300 299 303 314 316 312 302 297 302 303 308 305 307 316 311 308 305 303 300 296 290
296 207 246 199 228 264 15 130 271 287 268 257 281 277 260 258 260 271 279 288 286 285 286 299 300 306 311 313 311 300 300 304 303 303 299 300 310 308 308 308 307 305 300 292
277 283 268 319 274 319 317 312 309 248 244 255 250 252 253 259 266 276 282 277 274 284 293 306 311 304 299 309 308 304 307 310 305 299 299 297 306 304 307 309 304 302 300 296
227 331 286 275 286 295 283 287 292 300 261 265 261 248 255 269 279 264 273 281 288 296 303 303 295 297 292 301 304 307 309 310 305 301 300 296 304 301 304 307 301 299 295 291
246 268 265 272 285 277 284 288 283 296 292 272 251 266 267 254 263 273 283 285 287 290 296 293 292 292 290 297 299 303 306 307 304 304 302 299 304 302 303 304 303 298 296 297